Weather observations for the past three days for
Austin-Bergstrom International Airport
Imperial (Metric)
Date Time (cdt) Wind (mph) Vis. (mi.) Weather Sky Cond. Temperature (ºF) Relative Humidity Wind Chill (°F) Heat Index (°F) Pressure Precipitation (in)
Air Dwpt 6 hour altimeter (in) sea level (mb) 1 hr 3 hr 6 hr
Max. Min.
19 13:53 NE 10 G 22 10.00 Light Rain FEW009 BKN015 OVC020 78.1 75.9 93% 81 29.99 1014.4 0.02
19 12:53 NE 15 10.00 Light Rain SCT016 BKN025 OVC070 79 75 81 75 88% 83 29.98 1014.2 0.01 0.01
19 11:53 NE 18 G 28 10.00 Overcast BKN019 OVC025 80.1 73 79% 84 29.98 1014.1
19 10:53 NE 14 10.00 Light Rain OVC017 79 73 82% 82 29.96 1013.5
19 09:53 NE 12 G 21 10.00 Overcast OVC013 78.1 73 85% 81 29.96 1013.3
19 08:53 NE 15 G 22 10.00 Overcast OVC012 77 72 85% 78 29.95 1013.1
19 07:53 NE 12 10.00 Mostly Cloudy BKN013 BKN019 BKN200 75.9 72 88% 76 29.93 1012.3
19 06:53 NE 10 10.00 Mostly Cloudy FEW014 SCT039 BKN046 75 72 77 73 90% 74 29.91 1011.8
19 05:53 NE 12 10.00 Overcast BKN021 OVC029 75.9 71.1 85% 76 29.9 1011.2
19 04:53 NE 10 10.00 Mostly Cloudy BKN025 75.9 70 82% 77 29.88 1010.5
19 03:53 NE 6 10.00 Mostly Cloudy FEW020 BKN080 75 70 84% 75 29.87 1010.4
19 02:53 NE 3 10.00 A Few Clouds FEW030 75.9 69.1 79% 77 29.88 1010.8
19 01:53 E 3 10.00 Mostly Cloudy FEW015 BKN030 77 71.1 82% 79 29.9 1011.2
19 00:53 Calm 10.00 Fair CLR 75 71.1 91 75 88% 75 29.9 1011.2
18 23:53 SE 6 10.00 Fair CLR 78.1 72 82% 80 29.9 1011.4
18 22:53 E 6 10.00 Fair CLR 79 70 74% 82 29.89 1011.0
18 21:53 SE 12 10.00 Fair CLR 82 69.1 65% 85 29.86 1010.0
18 20:53 SE 12 G 21 10.00 Fair CLR 84 68 59% 87 29.84 1009.3
18 19:53 SE 15 G 25 10.00 A Few Clouds FEW055 FEW080 87.1 68 53% 91 29.83 1008.9
18 18:53 E 15 10.00 Partly Cloudy FEW049 SCT070 91 71.1 96.1 87.1 52% 98 29.8 1007.9
18 17:53 E 15 G 22 10.00 Partly Cloudy SCT060 SCT080 91.9 70 49% 98 29.79 1007.6
18 16:53 E 22 G 31 10.00 Partly Cloudy and Breezy SCT060 93.9 72 49% 102 29.78 1007.3
18 15:53 SE 12 G 26 10.00 Partly Cloudy SCT060 93.9 70 46% 100 29.79 1007.6
18 14:53 SE 13 G 23 10.00 Partly Cloudy SCT055 93.9 69.1 44% 99 29.8 1007.9
18 13:53 S 7 G 22 10.00 Light Rain SCT048 BKN065 88 73 61% 96 29.83 1008.9
18 12:53 E 14 G 22 10.00 Partly Cloudy FEW033 SCT044 91 73 91 73.9 56% 100 29.85 1009.4
18 11:53 S 5 10.00 Light Rain SCT031 SCT042 BKN049 86 73.9 67% 94 29.85 1009.7
18 10:53 SE 7 G 20 10.00 Mostly Cloudy SCT027 BKN037 BKN049 84.9 73 68% 92 29.85 1009.7
18 09:53 SE 13 10.00 Mostly Cloudy BKN023 BKN037 82.9 73 72% 89 29.85 1009.7
18 08:53 SE 14 10.00 A Few Clouds FEW018 81 73 77% 86 29.84 1009.4
18 07:53 E 3 10.00 Mostly Cloudy FEW032 SCT055 BKN200 77 73 88% 78 29.83 1009.0
18 06:53 SE 3 10.00 Mostly Cloudy BKN031 BKN200 73.9 72 78.1 73 94% 29.83 1008.8
18 05:53 SE 5 10.00 Partly Cloudy FEW026 SCT200 73 71.1 94% 29.82 1008.5
18 04:53 E 6 10.00 A Few Clouds FEW025 FEW042 75 72 90% 74 29.81 1008.2
18 03:53 SE 8 10.00 Overcast OVC042 75.9 72 88% 76 29.82 1008.3
18 02:53 SE 8 10.00 Mostly Cloudy BKN038 77 72 85% 78 29.82 1008.6
18 01:53 SE 8 10.00 Mostly Cloudy BKN029 77 72 85% 78 29.84 1009.3
18 00:53 SE 6 10.00 Fair CLR 78.1 72 91 78.1 82% 80 29.86 1009.9
17 23:53 SE 9 10.00 A Few Clouds FEW060 79 73 82% 82 29.86 1009.9
17 22:53 SE 15 10.00 A Few Clouds FEW060 80.1 73 79% 84 29.85 1009.5
17 21:53 SE 18 G 32 10.00 Partly Cloudy SCT037 82.9 73 72% 89 29.82 1008.4
17 20:53 SE 22 G 30 10.00 A Few Clouds and Breezy FEW037 FEW048 86 72 63% 92 29.78 1007.2
17 19:53 SE 21 G 31 10.00 A Few Clouds and Breezy FEW040 88 72 59% 95 29.76 1006.7
17 18:53 SE 21 G 31 10.00 A Few Clouds and Breezy FEW042 91 73 96.1 91 56% 100 29.74 1005.9
17 17:53 SE 23 G 32 10.00 Partly Cloudy and Breezy FEW042 SCT065 93 73 52% 102 29.74 1005.7
17 16:53 SE 21 G 31 10.00 Partly Cloudy and Breezy FEW041 SCT060 93 75 56% 104 29.74 1005.8
17 15:53 SE 18 G 28 10.00 A Few Clouds FEW050 96.1 73.9 49% 107 29.75 1006.2
17 14:53 SE 14 G 25 10.00 Partly Cloudy FEW040 SCT070 93.9 73.9 52% 104 29.77 1006.9
17 13:53 SE 13 G 25 10.00 Light Rain FEW042 SCT055 BKN070 91 75 59% 102 29.8 1007.6
17 12:53 S 10 10.00 Partly Cloudy FEW038 SCT070 93 73 93 77 52% 102 29.81 1008.2
17 11:53 SE 12 G 21 10.00 Mostly Cloudy SCT035 BKN049 90 73.9 59% 99 29.83 1008.6
17 10:53 S 10 10.00 Mostly Cloudy FEW028 SCT036 BKN065 87.1 75 67% 97 29.83 1008.8
17 09:53 SE 12 10.00 Mostly Cloudy SCT020 SCT027 BKN039 86 75.9 72% 96 29.83 1008.8
17 08:53 SE 12 10.00 Partly Cloudy FEW017 SCT027 82.9 75.9 79% 91 29.83 1009.0
17 07:53 SE 5 10.00 A Few Clouds FEW025 FEW060 79 75.9 90% 83 29.83 1008.9
17 06:53 E 3 10.00 Partly Cloudy FEW016 SCT040 SCT065 77 75.9 81 75.9 96% 78 29.82 1008.5
17 05:53 SE 5 10.00 Partly Cloudy FEW019 SCT027 77 75 94% 78 29.81 1008.2
17 04:53 SE 5 10.00 Overcast FEW021 SCT027 OVC032 78.1 75.9 93% 81 29.82 1008.4
17 03:53 SE 6 10.00 Overcast BKN014 BKN022 OVC030 79 75 88% 83 29.82 1008.4
17 02:53 SE 6 10.00 Mostly Cloudy BKN017 BKN023 80.1 75 85% 85 29.83 1008.7
17 01:53 S 5 10.00 Mostly Cloudy BKN019 BKN025 80.1 75 85% 85 29.84 1009.3
17 00:53 S 6 10.00 A Few Clouds FEW080 FEW250 80.1 73.9 93.9 80.1 82% 85 29.86 1009.8
16 23:53 S 9 10.00 A Few Clouds FEW080 FEW250 82 73.9 77% 88 29.85 1009.5
16 22:53 S 13 G 26 10.00 A Few Clouds FEW080 FEW250 84 73 70% 90 29.83 1008.9
16 21:53 SE 14 G 25 10.00 A Few Clouds FEW080 FEW250 87.1 73 63% 95 29.81 1008.1
16 20:53 SE 15 10.00 Partly Cloudy FEW075 SCT250 89.1 72 57% 96 29.78 1007.3
16 19:53 SE 15 G 23 10.00 Partly Cloudy FEW060 FEW075 SCT250 91 72 54% 99 29.77 1006.7
16 18:53 SE 15 10.00 Partly Cloudy FEW060 SCT100 SCT250 93.9 70 97 91 46% 100 29.76 1006.4
16 17:53 SE 14 G 22 10.00 Partly Cloudy SCT065 SCT100 SCT250 95 71.1 46% 102 29.76 1006.4
16 16:53 SE 14 G 18 10.00 Partly Cloudy SCT065 SCT100 SCT250 97 70 42% 104 29.77 1006.8
16 15:53 Calm 10.00 A Few Clouds FEW055 FEW250 95 69.1 43% 101 29.79 1007.5
16 14:53 S 10 10.00 Partly Cloudy FEW055 SCT250 95 70 44% 101 29.82 1008.3
Date Time (cdt) Wind (mph) Vis. (mi.) Weather Sky Cond. Air Dwpt Max. Min. Relative Humidity Wind Chill (°F) Heat Index (°F) altimeter (in) sea level (mb) 1 hr 3 hr 6 hr
6 hour
Temperature (ºF) Pressure Precipitation (in)